This demonstration page uses our WeatherBlox Daily Observations layout. Learn more.

39.29038, -76.61219

Hourly Observations for December 28, 2019

Temp ( °F °C ) Dew Point ( °F °C ) Humidity (%) Winds ( mph kmh ) Pressure ( in mb ) Visibility ( mi km ) Precip ( " mm )
12:54 am 00:54 undefined 45 7.2 41 5 86 86 undefined N/A 30.16 1021 N/A 0 0
1:54 am 01:54 undefined 44 6.7 41 5 89 89 undefined N/A 30.16 1022 N/A 0 0
2:54 am 02:54 undefined 44 6.7 41 5 89 89 undefined N/A 30.17 1022 N/A 0 0
3:54 am 03:54 undefined 43 6.1 40 4.4 89 89 undefined N/A 30.18 1022 N/A 0 0
4:54 am 04:54 undefined 43 6.1 40 4.4 89 89 undefined N/A 30.19 1022 N/A 0 0
5:54 am 05:54 undefined 43 6.1 41 5 93 93 undefined N/A 30.19 1022 N/A 0 0
6:54 am 06:54 undefined 43 6.1 40 4.4 89 89 undefined N/A 30.21 1023 N/A 0 0
7:54 am 07:54 undefined 42 5.6 39 3.9 89 89 undefined N/A 30.23 1024 N/A 0 0
8:54 am 08:54 undefined 45 7.2 41 5 86 86 undefined N/A 30.28 1025 N/A 0 0
9:54 am 09:54 undefined 50 10 43 6.1 77 77 undefined N/A 30.31 1027 N/A 0 0
10:54 am 10:54 undefined 60 15.6 45 7.2 58 58 undefined N/A 30.3 1026 N/A 0 0
11:54 am 11:54 undefined 62 16.7 41 5 46 46 undefined N/A 30.25 1024 N/A 0 0
12:54 pm 12:54 undefined 63 17.2 42 5.6 47 47 undefined N/A 30.23 1024 N/A 0 0
1:54 pm 13:54 undefined 63 17.2 41 5 45 45 undefined N/A 30.19 1023 N/A 0 0
2:54 pm 14:54 undefined 63 17.2 40 4.4 43 43 undefined N/A 30.19 1023 N/A 0 0
3:54 pm 15:54 undefined 56 13.3 45 7.2 67 67 undefined N/A 30.21 1023 N/A 0 0
4:54 pm 16:54 undefined 54 12.2 44 6.7 69 69 undefined N/A 30.22 1023 N/A 0 0
5:54 pm 17:54 undefined 51 10.6 44 6.7 77 77 undefined N/A 30.22 1024 N/A 0 0
6:54 pm 18:54 undefined 52 11.1 43 6.1 72 72 undefined N/A 30.22 1023 N/A 0 0
7:54 pm 19:54 undefined 51 10.6 43 6.1 74 74 undefined N/A 30.22 1024 N/A 0 0
8:54 pm 20:54 undefined 51 10.6 42 5.6 71 71 undefined N/A 30.24 1024 N/A 0 0
9:54 pm 21:54 undefined 50 10 41 5 71 71 undefined N/A 30.26 1025 N/A 0 0
10:54 pm 22:54 undefined 50 10 41 5 71 71 undefined N/A 30.25 1024 N/A 0 0
11:54 pm 23:54 undefined 49 9.4 40 4.4 71 71 undefined N/A 30.23 1024 N/A 0 0

Powered by AerisWeather